Weather History for Farmington, NM

Change the Weather History Date:

Tuesday, November 20, 2012

  Actual Average Record
Temperature  
Mean Temperature 44 °F -  
Max Temperature 60 °F 49 °F 65 °F (1990)
Min Temperature 28 °F 24 °F 13 °F (1980)
Degree Days  
Heating Degree Days 21    
Moisture  
Dew Point 22 °F    
Average Humidity 46    
Maximum Humidity 75    
Minimum Humidity 13    
Precipitation  
Precipitation 0.00 in - - ()
Sea Level Pressure  
Sea Level Pressure 30.31 in    
Wind  
Wind Speed 6 mph (East)    
Max Wind Speed 10 mph    
Max Gust Speed -    
Visibility 10 miles    
Events      
Averages and records for this station are not official NWS values.
T = Trace of Precipitation, MM = Missing Value Source: NWS Daily Summary

Daily Weather History Graph

Daily Weather History Graph

Search for Another Location

Airport:

Trip Planner

Search our weather history database for the weather conditions in past years. The results will help you decide how hot, cold, wet, or windy it might be!

Date:

Astronomy

Nov. 20, 2012 Rise Set
Actual Time 6:56 AM MST 5:00 PM MST
Civil Twilight 6:28 AM MST 5:28 PM MST
Nautical Twilight 5:57 AM MST 5:59 PM MST
Astronomical Twilight 5:26 AM MST 6:30 PM MST
Moon 12:37 PM MST (11/20) No Moon Set
Length of Visible Light 10h 59m
Length of Day
10h 03m
First Quarter, 52% of the Moon is Illuminated
Nov 20
First Quarter
Nov 28
Full
Dec 6
Last Quarter
Dec 13
New
Dec 19
First Quarter

Hourly Weather History & Observations

Time (MST) Temp. Windchill Dew Point Humidity Pressure Visibility Wind Dir Wind Speed Gust Speed Precip Events Conditions
1:53 AM 32.0 °F 25.6 °F 21.9 °F 66% 30.34 in 10.0 mi East 6.9 mph - N/A   Clear
2:53 AM 30.9 °F 24.3 °F 23.0 °F 72% 30.34 in 10.0 mi East 6.9 mph - N/A   Clear
3:53 AM 30.0 °F 23.2 °F 21.9 °F 72% 30.34 in 10.0 mi East 6.9 mph - N/A   Clear
5:53 AM 28.9 °F 21.1 °F 21.9 °F 75% 30.38 in 10.0 mi East 8.1 mph - N/A   Clear
6:53 AM 28.9 °F 21.1 °F 21.9 °F 75% 30.42 in 10.0 mi East 8.1 mph - N/A   Clear
7:53 AM 30.9 °F 22.2 °F 23.0 °F 72% 30.43 in 10.0 mi East 10.4 mph - N/A   Clear
8:53 AM 35.1 °F 27.4 °F 24.1 °F 64% 30.43 in 10.0 mi ESE 10.4 mph - N/A   Clear
9:53 AM 41.0 °F 36.4 °F 25.0 °F 53% 30.40 in 10.0 mi ESE 6.9 mph - N/A   Clear
10:53 AM 48.0 °F - 26.1 °F 42% 30.36 in 10.0 mi East 6.9 mph - N/A   Clear
11:53 AM 53.1 °F - 25.0 °F 34% 30.31 in 10.0 mi ESE 4.6 mph - N/A   Clear
12:53 PM 55.9 °F - 23.0 °F 28% 30.27 in 10.0 mi SSW 4.6 mph - N/A   Clear
1:53 PM 57.9 °F - 21.9 °F 25% 30.24 in 10.0 mi Calm Calm - N/A   Clear
2:53 PM 59.0 °F - 21.0 °F 23% 30.22 in 10.0 mi Calm Calm - N/A   Clear
3:53 PM 60.1 °F - 19.9 °F 21% 30.22 in 10.0 mi Calm Calm - N/A   Clear
4:53 PM 57.0 °F - 19.9 °F 24% 30.22 in 10.0 mi Calm Calm - N/A   Clear
5:53 PM 46.9 °F - 19.9 °F 34% 30.26 in 10.0 mi NE 5.8 mph - N/A   Clear
6:53 PM 41.0 °F 35.8 °F 19.0 °F 41% 30.28 in 10.0 mi NE 8.1 mph - N/A   Clear
7:53 PM 37.9 °F 35.5 °F 19.0 °F 47% 30.29 in 10.0 mi NE 3.5 mph - N/A   Clear
8:53 PM 35.1 °F 28.6 °F 19.0 °F 52% 30.30 in 10.0 mi NE 8.1 mph - N/A   Clear
9:53 PM 35.1 °F 29.3 °F 19.0 °F 52% 30.28 in 10.0 mi ENE 6.9 mph - N/A   Clear
10:53 PM 35.1 °F 28.6 °F 19.9 °F 54% 30.25 in 10.0 mi East 8.1 mph - N/A   Clear
11:53 PM 36.0 °F 28.5 °F 21.0 °F 55% 30.23 in 10.0 mi ESE 10.4 mph - N/A   Clear